Karup, Denmark

12:07 PM CEST on June 28, 2017 (GMT +0200)
Karup Air Base

Weather History for EKKA - November, 2012

Change the Weather History Date:

Sunday, November 25, 2012

  Actual Average Record
Temperature  
Mean Temperature 43 °F -  
Max Temperature 48 °F 39 °F 59 °F (2006)
Min Temperature 38 °F 34 °F 22 °F (2013)
Degree Days  
Heating Degree Days 22    
Moisture  
Dew Point 41 °F    
Average Humidity 93    
Maximum Humidity 100    
Minimum Humidity 83    
Precipitation  
Precipitation 0.31 in - - ()
Sea Level Pressure  
Sea Level Pressure 29.62 in    
Wind  
Wind Speed 12 mph ()    
Max Wind Speed 22 mph    
Max Gust Speed 32 mph    
Visibility 3.8 miles    
Events Rain    
Averages and records for this station are not official NWS values.
T = Trace of Precipitation, MM = Missing Value Source: Averaged Metar Reports

Daily Weather History Graph

Daily Weather History Graph

Search for Another Location

Airport or City:

Trip Planner

Search our weather history database for the weather conditions in past years. The results will help you decide how hot, cold, wet, or windy it might be!

Date:

Astronomy

Nov. 25, 2012 Rise Set
Actual Time 8:21 AM CET 3:58 PM CET
Civil Twilight 7:37 AM CET 4:43 PM CET
Nautical Twilight 6:49 AM CET 5:31 PM CET
Astronomical Twilight 6:04 AM CET 6:15 PM CET
Moon 2:29 PM CET (11/25) 4:54 AM CET (11/25)
Length of Visible Light 9h 06m
Length of Day
7h 36m
Waxing Gibbous, 91% of the Moon is Illuminated
Nov 25
Waxing Gibbous
Nov 28
Full
Dec 6
Last Quarter
Dec 13
New
Dec 20
First Quarter

Hourly Weather History & Observations

Time (CET) Temp. Windchill Dew Point Humidity Pressure Visibility Wind Dir Wind Speed Gust Speed Precip Events Conditions
12:20 AM 39.2 °F 32.5 °F 39.2 °F 100% 30.04 in 2.2 mi SE 10.4 mph - N/A   Mostly Cloudy
12:50 AM 39.2 °F 32.0 °F 39.2 °F 100% 30.04 in - ESE 11.5 mph - N/A   Mostly Cloudy
1:00 AM 39 °F - 38 °F 94% 30.04 in 2 mi ESE 10.4 mph - -   Mist
1:20 AM 39.2 °F 33.0 °F 37.4 °F 93% 30.01 in - ESE 9.2 mph - N/A   Mostly Cloudy
1:51 AM 39.2 °F 34.2 °F 37.4 °F 93% 30.01 in 2.2 mi ESE 6.9 mph - N/A   Mostly Cloudy
2:20 AM 39.2 °F 33.6 °F 39.2 °F 100% 29.98 in 2.2 mi ESE 8.1 mph - N/A   Mostly Cloudy
2:50 AM 39.2 °F 32.5 °F 37.4 °F 93% 29.98 in 2.5 mi ESE 10.4 mph - N/A   Mostly Cloudy
3:20 AM 39.2 °F 33.0 °F 37.4 °F 93% 29.95 in 2.5 mi ESE 9.2 mph - N/A   Mostly Cloudy
3:50 AM 39.2 °F 32.5 °F 37.4 °F 93% 29.92 in 2.5 mi ESE 10.4 mph - N/A   Mostly Cloudy
4:00 AM 39 °F - 37 °F 88% 29.94 in 2 mi ESE 10.4 mph - -   Mist
4:20 AM 39.2 °F 33.0 °F 37.4 °F 93% 29.92 in 3.1 mi East 9.2 mph - N/A   Mostly Cloudy
4:50 AM 39.2 °F 32.0 °F 37.4 °F 93% 29.89 in 3.1 mi ESE 11.5 mph - N/A   Mostly Cloudy
5:20 AM 41.0 °F 33.9 °F 37.4 °F 87% 29.86 in 3.7 mi ESE 12.7 mph - N/A   Mostly Cloudy
5:50 AM 41.0 °F 33.5 °F 37.4 °F 87% 29.83 in 4.3 mi ESE 13.8 mph 25.3 mph N/A   Mostly Cloudy
6:20 AM 41.0 °F 33.1 °F 37.4 °F 87% 29.83 in 4.3 mi ESE 15.0 mph - N/A   Mostly Cloudy
6:50 AM 41.0 °F 32.5 °F 37.4 °F 87% 29.80 in 5.0 mi ESE 17.3 mph - N/A   Mostly Cloudy
7:00 AM 41 °F - 38 °F 83% 29.82 in 5 mi ESE 16.1 mph - -   Mist
7:20 AM 41.0 °F 32.8 °F 37.4 °F 87% 29.77 in 6.2 mi ESE 16.1 mph - N/A   Mostly Cloudy
7:51 AM 41.0 °F 32.5 °F 37.4 °F 87% 29.77 in 5.0 mi ESE 17.3 mph 28.8 mph N/A Rain Light Rain
8:21 AM 41.0 °F 32.2 °F 37.4 °F 87% 29.74 in 6.2 mi ESE 18.4 mph 29.9 mph N/A Rain Light Rain
8:50 AM 41.0 °F 32.2 °F 39.2 °F 93% 29.71 in 4.3 mi ESE 18.4 mph 29.9 mph N/A Rain Light Rain
9:20 AM 41.0 °F 31.9 °F 39.2 °F 93% 29.68 in 4.3 mi East 19.6 mph 32.2 mph N/A Rain Light Rain
9:50 AM 42.8 °F 34.5 °F 41.0 °F 93% 29.68 in 5.6 mi East 18.4 mph 32.2 mph N/A Rain Light Rain
10:00 AM 42 °F - 40 °F 91% 29.68 in 9 mi East 18.4 mph - - Rain Light Rain
10:21 AM 42.8 °F 34.0 °F 41.0 °F 93% 29.65 in 3.1 mi East 20.7 mph - N/A Rain Rain
10:50 AM 42.8 °F 33.8 °F 41.0 °F 93% 29.62 in 4.3 mi ESE 21.9 mph - N/A Rain Light Rain
11:21 AM 42.8 °F 34.5 °F 41.0 °F 93% 29.59 in 3.7 mi ESE 18.4 mph - N/A Rain Light Rain
11:50 AM 42.8 °F 34.5 °F 41.0 °F 93% 29.59 in 2.5 mi ESE 18.4 mph 32.2 mph N/A Rain Rain
12:21 PM 44.6 °F 37.2 °F 42.8 °F 93% 29.56 in 3.1 mi ESE 17.3 mph - N/A Rain Rain
12:50 PM 44.6 °F 37.8 °F 42.8 °F 93% 29.53 in 3.7 mi ESE 15.0 mph - N/A Rain Light Rain
1:00 PM 44 °F - 43 °F 93% 29.55 in 4 mi ESE 17.3 mph - - Rain Light Rain
1:20 PM 44.6 °F 37.4 °F 42.8 °F 93% 29.53 in 3.7 mi ESE 16.1 mph - N/A Rain Light Rain
1:51 PM 44.6 °F 37.8 °F 42.8 °F 93% 29.50 in 3.1 mi ESE 15.0 mph - N/A Rain Light Rain
2:21 PM 44.6 °F 38.4 °F 42.8 °F 93% 29.47 in 3.7 mi ESE 12.7 mph - N/A Rain Light Rain
2:50 PM 44.6 °F 38.8 °F 42.8 °F 93% 29.47 in 2.8 mi SE 11.5 mph - N/A Rain Light Rain
3:21 PM 44.6 °F 39.2 °F 44.6 °F 100% 29.47 in 5.6 mi SE 10.4 mph - N/A Rain Light Rain
3:50 PM 46.4 °F 42.4 °F 44.6 °F 93% 29.47 in 5.6 mi SE 8.1 mph - N/A   Mostly Cloudy
4:00 PM 46 °F - 45 °F 93% 29.47 in 4 mi SE 6.9 mph - - Rain Light Rain
4:20 PM 46.4 °F 40.7 °F 46.4 °F 100% 29.44 in 2.5 mi South 12.7 mph - N/A Rain Light Rain
4:50 PM 46.4 °F 40.7 °F 44.6 °F 93% 29.44 in 2.8 mi South 12.7 mph - N/A Rain Light Rain
5:20 PM 46.4 °F 40.7 °F 42.8 °F 87% 29.44 in 6.2 mi SSE 12.7 mph - N/A   Mostly Cloudy
5:50 PM 44.6 °F 37.8 °F 42.8 °F 93% 29.42 in 6.2 mi South 15.0 mph 27.6 mph N/A Rain Light Rain
6:21 PM 44.6 °F 37.4 °F 42.8 °F 93% 29.42 in 6.2 mi SSE 16.1 mph - N/A Rain Light Rain
6:50 PM 44.6 °F 38.1 °F 42.8 °F 93% 29.39 in 6.2 mi SSE 13.8 mph - N/A Rain Light Rain
7:00 PM 44 °F - 42 °F 91% 29.41 in 6 mi SE 12.7 mph - - Rain Light Rain
7:20 PM 44.6 °F 37.4 °F 42.8 °F 93% 29.39 in 4.3 mi SE 16.1 mph - N/A Rain Light Rain
7:50 PM 44.6 °F 37.4 °F 42.8 °F 93% 29.36 in 4.3 mi SE 16.1 mph 27.6 mph N/A Rain Light Rain
8:21 PM 44.6 °F 37.4 °F 42.8 °F 93% 29.33 in 2.8 mi SE 16.1 mph - N/A Rain Light Rain
8:50 PM 44.6 °F 37.4 °F 42.8 °F 93% 29.30 in 2.2 mi SE 16.1 mph 27.6 mph N/A Rain Light Rain
9:20 PM 44.6 °F 38.1 °F 44.6 °F 100% 29.30 in 1.6 mi SSE 13.8 mph - N/A Rain Light Rain
9:51 PM 46.4 °F 40.4 °F 46.4 °F 100% 29.30 in 2.2 mi SSE 13.8 mph - N/A Rain Light Rain
10:00 PM 47 °F - 46 °F 96% 29.30 in 2 mi SSE 13.8 mph - - Rain Light Rain
10:20 PM 48.2 °F - 46.4 °F 93% 29.27 in 2.2 mi South 13.8 mph 26.5 mph N/A Rain Light Rain
10:50 PM 48.2 °F - 46.4 °F 93% 29.27 in 2.2 mi South 16.1 mph - N/A Rain Light Rain
11:21 PM 48.2 °F - 46.4 °F 93% 29.27 in 2.2 mi South 19.6 mph - N/A Rain Light Rain
11:50 PM 48.2 °F - 46.4 °F 93% 29.27 in 2.2 mi SSW 17.3 mph 31.1 mph N/A   Mostly Cloudy